Regional Weather Roundup
Issued by NWS

Home | Current Version | Previous Version | Text Only | Print | Product List | Glossary On
Versions: 1 2 3 4 5 6 7 8 9 10 11 12 13 14 15 16 17 18 19 20 21 22 23 24 25 26 27 28 29 30 31 32 33 34 35 36 37 38 39 40 41 42 43 44 45 46 47 48 49 50
115
ASUS43 KMKX 061300
RWRWI

WISCONSIN REGIONAL WEATHER ROUNDUP
NATIONAL WEATHER SERVICE MILWAUKEE/SULLIVAN WI
800 AM CDT FRI MAY 06 2016

NOTE: "FAIR" INDICATES FEW OR NO CLOUDS BELOW 12,000 FEET WITH NO
SIGNIFICANT WEATHER AND/OR OBSTRUCTIONS TO VISIBILITY.

WIZ001-002-006>008-014>016-023>028-061400-
NORTHWEST WISCONSIN

CITY           SKY/WX    TMP DP  RH WIND       PRES   REMARKS
SUPERIOR ARPT  SUNNY     65  45  49 SW9       29.78S
ASHLAND        NOT AVBL
HAYWARD        NOT AVBL
SIREN          SUNNY     64  42  43 W10       29.85S
CUMBERLAND     SUNNY     61  41  48 W10       29.86S
RICE LAKE      SUNNY     59  44  57 CALM      29.88R
CHETEK         SUNNY     53  47  77 CALM      29.87S
LADYSMITH      SUNNY     53  43  66 CALM      29.88S
EAU CLAIRE     NOT AVBL
MENOMONIE      SUNNY     59  49  68 CALM      29.88R
NEW RICHMOND   SUNNY     60  45  58 S3        29.88R
OSCEOLA        SUNNY     63  45  51 SW7       29.89S
$$

WIZ003>005-009-010-017-018-061400-
NORTH CENTRAL WISCONSIN

CITY           SKY/WX    TMP DP  RH WIND       PRES   REMARKS
MANITOWISH WTR SUNNY     53  42  68 CALM      29.84S
ARBOR VITAE    SUNNY     57  44  61 SW3       29.85R
WOODRUFF       SUNNY     57  44  61 SW3       29.85R
RHINELANDER    NOT AVBL
EAGLE RIVER    SUNNY     55  38  54 SW3       29.85R
LAND O LAKES   SUNNY     55  40  58 CALM      29.85S
PHILLIPS       SUNNY     56  42  58 CALM      29.85S
TOMAHAWK       SUNNY     54  41  61 CALM      29.87R
MEDFORD        MOSUNNY   54  42  62 SW6       29.88R
MERRILL        SUNNY     48  44  87 CALM      29.88S
$$

WIZ029-030-035-036-043>047-061400-
CENTRAL WISCONSIN

CITY           SKY/WX    TMP DP  RH WIND       PRES   REMARKS
WAUSAU         NOT AVBL
MOSINEE        MOSUNNY   54  43  66 S7        29.89S
MARSHFIELD     NOT AVBL
STEVENS POINT  PTSUNNY   53  40  61 SW7       29.90S
WAUPACA        CLOUDY    54  41  60 S3        29.90S
WAUTOMA        CLOUDY    56  40  55 CALM      29.92S
WISC RAPIDS    NOT AVBL
CAMP DOUGLAS   NOT AVBL
$$

WIZ011>013-019>022-031-037>040-048>050-061400-
NORTHEAST WISCONSIN

CITY           SKY/WX    TMP DP  RH WIND       PRES   REMARKS
ANTIGO         MOSUNNY   53  42  67 CALM      29.88S
SHAWANO        PTSUNNY   57  39  51 SW6       29.89S
OCONTO         SUNNY     56  42  59 SW6       29.88S
STURGEON BAY   SUNNY     57  43  58 SW8       29.91S
GREEN BAY      NOT AVBL
MANITOWOC      NOT AVBL
APPLETON       PTSUNNY   55  39  54 SW7       29.90R
CLINTONVILLE   CLOUDY    54  39  58 SW6       29.90R
OSHKOSH        SUNNY     57  40  52 SW9G18    29.92R
$$

WIZ032>034-041-042-053>061-061400-
SOUTHWEST WISCONSIN

CITY           SKY/WX    TMP DP  RH WIND       PRES   REMARKS
LA CROSSE      NOT AVBL
SPARTA         MOSUNNY   52  44  73 CALM      29.92S
VIROQUA        MOSUNNY   55  41  60 SW7       29.94R
BOSCOBEL       MOSUNNY   51  46  83 CALM      29.97R
PRAIRIE DU CHI SUNNY     55  42  62 CALM      29.96R
PLATTEVILLE    CLOUDY    53  42  65 S5        29.98R
$$

WIZ056-057-062-063-064-067-068-061400-
SOUTH CENTRAL WISCONSIN

CITY           SKY/WX    TMP DP  RH WIND       PRES   REMARKS
REEDSBURG      CLOUDY    56  40  55 SW6       29.94R
BARABOO/DELLS  CLOUDY    57  36  44 SW8       29.93S
LONE ROCK      NOT AVBL
MINERAL POINT  MOSUNNY   55  41  58 SW5       29.97R
MADISON        MOSUNNY   56  39  53 S6        29.95S
MIDDLETON      SUNNY     58  38  47 SW7       29.96R
WATERTOWN      MOSUNNY   52  41  66 SW7       29.95F
MONROE         SUNNY     52  39  62 SW10      29.98R
JANESVILLE     MOSUNNY   54  43  66 SW6       29.98R
$$

WIZ051-052-058>065-066-070>072-061400-
SOUTHEAST WISCONSIN

CITY           SKY/WX    TMP DP  RH WIND       PRES   REMARKS
MILWAUKEE      PTSUNNY   59  37  44 W9        29.96S
WAUKESHA       MOSUNNY   55  37  50 SW6       29.97S
MILWAUKEE/TIMM NOT AVBL
RACINE         PTSUNNY   57  40  52 W6        29.98R
BURLINGTON     MOSUNNY   55  42  60 SW3       29.97S
KENOSHA        CLOUDY    55  43  63 W8        29.97S
FOND DU LAC    SUNNY     61  39  44 SW13      29.92F
SHEBOYGAN      SUNNY     58  42  55 SW8       29.93S
WEST BEND      SUNNY     57  37  47 SW9       29.95S
JUNEAU         MOSUNNY   54  39  57 S9        29.95F
$$

LSZ147-162-061400-
LAKE SUPERIOR

STATION/POSITION TIME  TEMP    WIND        PRES    WAVE
                       AIR SEA DIR/SP/G            HT/PER
                 (UTC) (F)     (DEG/KT/KT) (MB)    (FT/S)
W MID LAKE BUOY  1150   44 37  220/  8/  8 1008.0R   1/ 3
DEVILS ISLAND    1200   61     230/ 21/ 22 1007.0F
SAXON HARBOR     1240   68     200/  5/ 12 1008.1R
$$

LMZ867-665-643>646-061400-
LAKE MICHIGAN

STATION/POSITION TIME  TEMP    WIND        PRES    WAVE
                       AIR SEA DIR/SP/G            HT/PER
                 (UTC) (F)     (DEG/KT/KT) (MB)    (FT/S)
CHAMBERS ISLAND  1200   55     180/  7/ 14 1011.9S
N MID LAKE BUOY  1150   41 39  190/ 12/ 14 1012.6R   1/ 3
NORTHPORT PIER   1200   47     150/  5/  6 1012.2R
ALGOMA LAKESHORE 1215          210/  9/ 10   N/A
KEWAUNEE LAKESHO 1200   47     170/  6/  7 1012.1R
SHEBOYGAN LAKESH 1200   52     200/  7/  7 1013.9S
PORT WASHINGTON  1240   54     190/  2/  5 1014.6S
S MID LAKE BUOY  1150   43 40  170/  6/  8 1015.2R   1
KENOSHA   LAKESH 1200   54     250/  9/ 11 1014.6S
$$

TC  - TEMPERATURE IN CELSIUS
VSB - VISIBILITY IN STATUTE MILES
WCI - WIND CHILL INDEX
HX  - HEAT INDEX





USA.gov is the U.S. government's official web portal to all federal, state and local government web resources and services.